Weather in Weihai

China     37°27′39″N   122°08′00″E
temp.,
°C
wind,
m/s
gust,
m/s
humid.,
%
clouds,
%
prec.,
mm/h
press.,
hPa
HPBL,
m
15 may, sat
sat1523:00+15se3696100 0.8 1008141
02:00+14e5798100 5.4 1006112
05:00+14ese6999100 0.8 1005179
08:00+14ese4799100 1.1 1006152
11:00+14ene4598100 0.1 1006128
14:00+14ne3498100 0.1 1004118
17:00+13ene4899100 0.1 1005189
20:00+13ne51099100 0.8 1005192
16 may, sun
sun1623:00+13nne4898100 0.4 1006151
02:00+13n5993100 0.6 1005176
05:00+13n51086100 0.0 1005190
08:00+14nnw5777100 0.0 1006164
11:00+15nnw6967100 0.0 1006258
14:00+15nw5764100 0.0 1006205
17:00+15nw596969 0.0 1006198
20:00+14wnw4676100 0.0 100763
17 may, mon
mon1723:00+15nnw596992 0.0 1008155
02:00+14w4474100 0.0 100731
05:00+14wnw5879100 0.0 1008138
08:00+14w5676100 0.0 1009109
11:00+15wnw61072100 0.0 1010217
14:00+16wnw71265100 0.0 1009228
17:00+16wnw466881 0.0 1009125
20:00+15ssw33645 0.0 101018
18 may, tue
tue1823:00+15ssw336713 0.0 101014
02:00+15ssw3361100 0.0 101014
05:00+15ssw4460100 0.0 101020
08:00+18wsw3456100 0.0 101187
11:00+21wnw33504 0.0 1011459
14:00+21e2252100 0.0 1010579
17:00+22s6850100 0.0 1009141
20:00+17ssw61160100 0.0 1010115
19 may, wed
wed1923:00+16ssw71266100 0.0 1011129
02:00+15ssw58640 0.0 101192
05:00+14ssw57690 0.0 101369
08:00+18ssw46615 0.0 1013132
11:00+21s674374 0.0 1013268
14:00+21ssw7846100 0.0 1012269
17:00+19ssw6859100 0.0 1011228
20:00+15sse4574100 0.0 101266